San Diego Classic - Holiday Cup - 50 Mile Toss

Station: 50 mile - T Race

Distance: 50 Miles

Release: 23-Nov-2022 08:00

Weather Release:    Arrival:

Wind at Release:     Wind at Arrival:

Temp at Release: °    Temp at Arrival: °

Lofts: 142

Birds: 507

Clocked: 505

Released in groups
Drops Pos Breeder Pigeon Name Color Sex Team Ent Arrival Speed To Win Elg PdRaceAvg Speed
1 Bob, Igor, & Joe - 0312-IF22-CC BB H 1 1 08:54:45.50 1607.061 00:00:00 Missing
2 Four For More - CA 0351-AU22-VIP BBWF H 1 1 08:54:47.60 1606.035 00:00:02 Yes
3 Nanez Family Loft - WI 0889-IF22-R BC H 1 1 08:54:55.60 1602.136 00:00:10 Yes
4 Zapopan- Palomar- Ayon Loft - TX 0096-AU22-AFLC Persoons/Cantayon #43 BB H 1 1 08:54:59.00 1600.485 00:00:13 Yes
5 Fassio Loft - UT 2404-AU22-SLI Half Bro Alone BB H 1 1 08:54:59.70 1600.145 00:00:14 Yes
6 Flying K9`S - AB 0792-AU22-K9S SIL H 1 1 08:55:00.80 1599.612 00:00:15 Yes
7 Bill Dozier - TX 4228-AU22-TEXA RC H 1 1 08:55:03.30 1598.402 00:00:18 Yes
8 SilvioKarges - ON 4689-AU22-VITA DC H 1 1 08:55:05.60 1597.289 00:00:20 Missing
9 Cl & Patti Cage - 0780-AU22-JEDD COH PEN H 1 1 08:55:06.20 1597.000 00:00:21 Yes
10 Crazy Als Lofts - CO 6245-AU22-CRAZ DC H 1 1 08:55:07.10 1596.565 00:00:22 Yes
11 Jsrl Loft - 0087-AU22-JSRL BB H 1 1 08:55:18.70 1590.984 00:00:33 Missing
12 Hi-Cal Connection - CA 0407-AU22-AUB COH BB H 1 1 08:55:20.60 1590.074 00:00:35 Yes
13 Cramer Loft - CA 0456-AU22-WOC BB H 1 1 08:55:24.10 1588.400 00:00:39 Missing
14 Martinez Classic OLR - CA 1552-AU22-MTZ 1935+220. GOGAN LEYYEN BB H 1 1 08:55:25.90 1587.540 00:00:40 Yes
15 3 Stars & A Sun - TX 0435-AU22-3STA BC H 1 1 08:55:44.90 1578.523 00:00:59 Missing
16 Simon Chi And George Xu - CA 1325-AU22-BON BB H 1 1 08:55:48.00 1577.061 00:01:02 Missing
17 No Limit Loft - CA 22237-AU22-JEDD BB H 1 1 08:56:00.40 1571.242 00:01:15 Yes
18 De La O-Siino - CA 2042-AU22-COOK BCWF H 1 1 08:56:31.60 1556.787 00:01:46 Yes
19 Pairan Family Loft - 0372-AU22-LFO BBWF H 1 1 08:56:36.00 1554.770 00:01:51 Yes
20 Champions Loft - CA 0317-AU22-BPRC BBWF H 1 1 08:56:37.40 1554.130 00:01:52 Yes
21 A P C Loft - TX 22320-AU22-APC BB H 1 1 08:56:37.90 1553.901 00:01:52 Yes
22 Ana Garcia - AZ 0026-AU22-PHOE SIL H 1 1 08:56:38.80 1553.489 00:01:53 Missing
23 G.S.P Loft - CA 0035-AU22-SHEL BBSP H 1 1 08:56:39.00 1553.398 00:01:53 Yes
24 Sweet Caroline Loft - CA 26372-AU22-FOYS BCWF H 1 1 08:56:39.30 1553.261 00:01:54 Missing
25 Bird Love To Fly Loft - 0248-AU22-BLTF BB H 1 1 08:56:39.90 1552.987 00:01:54 Yes
26 Zulu Loft - CA 0798-AU22-ZULU DC H 1 1 08:56:40.90 1552.530 00:01:55 Missing
26 Tbird Loft - AZ 0133-AU22-ARPU BB H 1 1 08:56:40.90 1552.530 00:01:55 Yes
28 44th Loft - AR 41927-AU22-JEDD Pair 4 BB H 1 1 08:56:41.90 1552.074 00:01:56 Yes
29 Wingsnwind Loft - SC 0020-AU22-BFC " BUCKEYE " BLK H 1 1 08:56:43.10 1551.527 00:01:58 Yes
30 Los Banditos - CA 2466-AU22-LOSB BB H 1 1 08:56:44.90 1550.706 00:01:59 Missing
31 Hawaiian Express - CA 84779-AU22-ARPU BCWF H 1 1 08:56:45.40 1550.479 00:02:00 Yes
32 John V Partridge - CA 0864-AU22-PASO Super Eleven S.A. BC H 1 1 08:56:45.70 1550.342 00:02:00 Yes
33 Desert Rose Loft - NV 28258-AU22-JEDD BB H 1 1 08:56:46.70 1549.887 00:02:01 Yes
33 Nanez Family Loft - WI 7161-AU22-NANE BC H 1 2 08:56:46.70 1549.887 00:02:01 Yes
35 Guadalajara Loft - 101830-MX22-FMC DCSP H 1 1 08:56:48.10 1549.250 00:02:03 Missing
36 Tbird Loft - AZ 0141-AU22-ARPU BB H 1 2 08:56:50.90 1547.979 00:02:05 Missing
37 Guadalajara Loft - 101823-MX22-FMC BB H 1 2 08:56:51.30 1547.797 00:02:06 Yes
38 Rick Barker - CA 0118-AU22-VIP BB H 1 1 08:56:52.10 1547.434 00:02:07 Yes
39 Lionello & Gluck Bros. - 1891-AU22-COMP BB H 1 1 08:56:52.50 1547.253 00:02:07 Yes
40 Flores Bro’s - CA 0016-AU22-BRL BB H 1 1 08:56:53.90 1546.618 00:02:08 Yes
41 Humberto Munoz - EM 9069-AU22-FMC BB H 1 1 08:56:54.30 1546.437 00:02:09 Yes
42 Nanez Family Loft - WI 7156-AU22-NANE BB H 1 3 08:56:54.80 1546.211 00:02:09 Yes
43 Four For More - CA 0217-AU22-VIP COH OPAL H 1 2 08:56:55.10 1546.075 00:02:10 Yes
44 A P C Loft - TX 22207-AU22-APC BB H 1 2 08:56:55.40 1545.939 00:02:10 Missing
45 Simon Chi And George Xu - CA 1324-AU22-BON BB H 1 2 08:56:55.80 1545.758 00:02:10 Missing
46 Hillhaven Loft - CA 22541-AU22-JEDD BC H 1 1 08:56:56.60 1545.396 00:02:11 Missing
47 3 Stars & A Sun - TX 0434-AU22-3STA BCWF H 1 2 08:56:57.10 1545.170 00:02:12 Missing
48 Hugo Avila Loft - CA 0778-AU22-MOJA BB H 1 1 08:56:57.40 1545.034 00:02:12 Yes
49 Zapopan- Palomar- Ayon Loft - TX 0009-AU22-AFLC Persoons/T6-Red Monky #33 BBSP H 1 2 08:56:58.00 1544.763 00:02:12 Yes
50 Michael Groe - CA 2252-AU22-GROE 389X2024 BC H 1 1 08:56:58.30 1544.627 00:02:13 Yes
51 Simon Chi And George Xu - CA 1337-AU22-BON BB H 1 3 08:56:58.90 1544.356 00:02:13 Missing
52 Flying D Loft - TX 1750-AU22-FLYD Flyd 14 - Flyd 221 BBSP H 1 1 08:57:00.10 1543.815 00:02:15 Missing
53 Michael Kelly DVM - CA 0244-AU22-MRK Clint’s Ace BB H 1 1 08:57:00.60 1543.589 00:02:15 Missing
54 Abraham's Loft - 1105-AU22-SD BB H 1 1 08:57:01.10 1543.363 00:02:16 Yes
54 Abraham's Loft - 1567-AU22-SD BB H 1 2 08:57:01.10 1543.363 00:02:16 Yes
56 Cl & Patti Cage - 0263-AU22-DENT BBSP H 1 2 08:57:01.50 1543.183 00:02:16 Yes
57 Any Given Day Loft - TX 22044-AU22-ANYG BB H 1 1 08:57:01.80 1543.048 00:02:16 Yes
58 Gene & Eddie - CA 0216-AU22-VIP BB H 1 1 08:57:02.40 1542.777 00:02:17 Yes
59 Arizona Inv Syndicate - AZ 1554-AU22-ARZ BBPD H 1 1 08:57:03.50 1542.281 00:02:18 Missing
60 Crazy Als Lofts - CO 6215-AU22-CRAZ BB H 1 2 08:57:03.90 1542.101 00:02:18 Missing
61 Nemeth Family Loft - CA 1021-AU22-NEME Samantha BCSP H 1 1 08:57:04.40 1541.876 00:02:19 Missing
62 Nanez Family Loft - WI 7159-AU22-NANE BB H 1 4 08:57:05.00 1541.606 00:02:19 Yes
62 Abraham's Loft - 1565-AU22-SD BB H 1 3 08:57:05.00 1541.606 00:02:19 Missing
64 Nemelka Racing Pigeon Loft - UT 2105-AU22-NRPL 😎😎😎😎😎😎 DC H 1 1 08:57:05.60 1541.336 00:02:20 Missing
65 B T C Racing - CA 21110-AU22-JEDD BC H 1 1 08:57:06.00 1541.156 00:02:20 Yes
66 Jones Boys & Pj Loft - UT 2685-AU22-SLI 2386-7147 BB H 1 1 08:57:06.60 1540.886 00:02:21 Yes
67 Zulu Loft - CA 0770-AU22-ZULU BBWF H 1 2 08:57:06.90 1540.751 00:02:21 Missing
67 Team Phoenix - AZ 0027-AU22-PHOE DCWF H 1 1 08:57:06.90 1540.751 00:02:21 Missing
69 Hawaiian Express - CA 0370-AU22-PONO BCWF H 1 2 08:57:07.90 1540.302 00:02:22 Yes
70 Guadalajara Loft - 101820-MX22-FMC DCSP H 1 3 08:57:11.50 1538.686 00:02:26 Yes
71 Farmers Loft - CA 22011-AU22-FARM BB H 1 1 08:57:12.50 1538.237 00:02:27 Yes
72 Nick Fan - NS 5087-AU22-CU BBWF H 1 1 08:57:13.10 1537.969 00:02:28 Missing
73 Scott Mc Callister - AZ 0080-AU22-DUTC BBSP H 1 1 08:57:13.80 1537.655 00:02:28 Missing
74 Barreras team - CA 2070-AU22-JBL Piplup BB H 1 1 08:57:15.80 1536.760 00:02:30 Yes
75 Champions Loft - CA 0311-AU22-BPRC BB H 1 2 08:57:17.00 1536.223 00:02:32 Missing
76 Lulus Loft - CA 1130-AU22-SD 🐣🐣🐣 AW BB H 1 1 08:57:17.30 1536.089 00:02:32 Missing
77 44th Loft - AR 41928-AU22-JEDD Pair 1 BC H 1 2 08:57:18.10 1535.732 00:02:33 Yes
78 C L & Patty Gage - TX 22053-AU22-ANYG COH BB H 1 1 08:57:20.40 1534.705 00:02:35 Missing
79 Duane Gragg - CA 0420-AU22-AUB BB H 1 1 08:57:22.20 1533.903 00:02:37 Yes
80 Hi-Cal Connection - CA 2103-AU22-NRPL COH BB H 1 2 08:57:22.50 1533.769 00:02:37 Yes
81 Barragan Racing Loft - CA 0022-AU22-BRL BBSP H 1 1 08:57:26.00 1532.211 00:02:40 Yes
82 Zulu Loft - CA 0723-AU22-ZULU BBWF H 1 3 08:57:30.50 1530.213 00:02:45 Missing
83 Dudley/Moden - CA 22046-AU22-DEHE BB H 1 1 08:57:33.10 1529.061 00:02:48 Yes
84 Alma Missiles Castro - AZ 2956-AU22-USTE BBSP H 1 1 08:57:33.20 1529.017 00:02:48 Yes
85 Hawaiian Express - CA 84776-AU22-ARPU BB H 1 3 08:57:36.40 1527.601 00:02:51 Yes
86 No Limit Loft - CA 22233-AU22-JEDD BB H 1 2 08:57:40.10 1525.967 00:02:55 Missing
87 Gene & Eddie - CA 0120-AU22-GENE BC H 1 2 08:57:40.30 1525.879 00:02:55 Missing
88 Michael Kelly DVM - CA 0254-AU22-MRK Here comes Warren’s gir BB H 1 2 08:57:43.40 1524.513 00:02:58 Yes
89 Tim Brandon - CA 22112-AU22-SNV BC H 1 1 08:57:43.80 1524.337 00:02:58 Yes
90 Dudley/Moden - CA 22050-AU22-DEHE BCPD H 1 2 08:57:51.20 1521.088 00:03:06 Yes
91 Four For More - CA 0354-AU22-VIP BB H 1 3 08:57:57.10 1518.507 00:03:12 Yes
92 Flores Bro’s - CA 47182-AU22-JEDD SIL H 1 2 08:57:57.90 1518.158 00:03:12 Missing
93 Crazy Als Lofts - CO 6224-AU22-CRAZ BB H 1 3 08:58:01.40 1516.631 00:03:16 Missing
94 A P C Loft - TX 22201-AU22-APC BBWF H 1 3 08:58:05.70 1514.760 00:03:20 Missing
95 Milo & Ruth - CA 22072-AU22-DEHE BC H 1 1 08:58:06.20 1514.543 00:03:21 Yes
96 Hugo Avila Loft - CA 22059-AU22-DEHE COH BB H 1 2 08:58:08.20 1513.675 00:03:23 Missing
97 Venn Family Loft - WY 0036-AU22-VENN RC H 1 1 08:58:09.30 1513.197 00:03:24 Yes
98 Williams Family Loft - TX 0820-AU22-SD BB H 1 1 08:58:10.70 1512.591 00:03:25 Yes
99 Dea - AZ 70482-AU22-ARPU BB H 1 1 08:58:12.20 1511.941 00:03:27 Missing
100 A & H Gandara - OK 0562-AU22-PRO BC H 1 1 08:58:15.80 1510.384 00:03:30 Yes

There are 505 bird records

Note: These Race Results are unofficial and subject to change until verified by the Race Committee and declared final.